Starlink 31950

operational
NORAD ID: 59863 Int'l Des: 2024-098 Owner: SPXS Country: US Constellation: starlink
LEOCIRCULAR

Starlink 31950について

説明を読み込み中...

リアルタイム位置

3D地球を読み込み中...

次回通過

高度履歴

Altitude vs Time

uPlot chart will show altitude changes over time

軌道要素

1 59863U 24098F 25303.23414199 -.00000566 00000-0 -11072-4 0 9994
2 59863 43.0013 294.8318 0000923 266.2597 93.8149 15.27574003 81894
Epoch: Oct 30, 2025 • Age: 24 hours

現在のステータス

高度 482.3 km
速度 7.63 km/s
衛星直下点 10.75°N, 30.45°W
打ち上げ日 May 24, 2024
運用期間 1.4 years
タイプ internet

技術仕様

分類 Payload
質量 730.00 kg
乾燥質量 700.00 kg
総質量 730.00 kg
長さ 0.30 m
直径 4.10 m
スパン 29.00 m
形状 Box + pan
製造者 SPXS
バスタイプ Starlink V2M
フェーズステータス In Orbit
所有者/国 SPXS/US

大規模コンステレーション

Loading constellations...